Location: Newark
(25.6108°S, 54.5803°W)
Time: 05:12:03
(UTC+00:00)

deb Explorer IX - Pass Details

Date: 01 November 2020
Orbit: 538 x 1104 km, 38.8° (Epoch: 27 November)

Event Time Altitude Azimuth Distance (km) Brightness Sun altitude
Rises 21:30:39 0° 243° (WSW) 3,349 ? 4.4°
Reaches altitude 10° 21:34:08 10° 224° (SW) 2,291 ? 3.7°
Maximum altitude 21:37:40 18° 183° (S) 1,707 ? 2.9°
Drops below altitude 10° 21:40:54 10° 140° (SE) 2,058 ? 2.2°
Sets 21:43:48 0° 119° (ESE) 2,876 ? 1.6°
